Погода в Злихе

Погода в Злихе : погода сейчас, прогноз погоды и архив. Всё, что Вы хотите узнать о погоде в Злихе!

Поиск расширенной информации на нашем сайте:

Другие новости

Новости СМИ2

Главная страница сайта

Новости сайта

03.07.2017

Напоминаем, что на нашем специализированном сайте Метеоцентр.Азия вы можете получить высокодетализированные автоматические прогнозы погоды по пунктам России, СНГ и мира в авиационном формате (включающие направление и скорость ветра, видимость, явления погоды, количество и форму облачности, нижнюю и верхнюю границу облачности).


Погода в Злихе - сегодня

Время (UTC), дата Ветер
(°,м/с) 
Видим.   Явления Облачность Т
(°С)
Тd
(°С)
f(%) Тe
(°С)
Pmin
(гПа)
dP
(гПа)
Po
(мм)
O2
(г/м3)
Тmin Tmax R s Состояние
почвы
18 20.02.18 тихо ()   н/о    ясно 
-15 -18.4 75 -15  1041.9  0.7  767  329    -8       
21 20.02.18 090 (В) н/о    10/0 средняя 
[Ac As]
-2 -7.7 65 -3  1017.1  0.5  750  305           
00 21.02.18 090 (В) н/о    10/0 средняя 
[Ac As]
-2.8 -7.3 71 -4  1009.2  0.9  750  306           
03 21.02.18 230 (ЮЗ) 10 км  снег  10/10 600 м 
[Ns]
-0.4 -3.5 80 -3  1021.3  1.9  753  304  -2.6      мокрый или
старый снег
10-40% 
06 21.02.18 230 (ЮЗ) 4000 м  слаб. снег  10/10 600 м 
[Ns]
+0 -3.4 78 -2  1022.9  1.6  754  304  -2.6       
09 21.02.18 230 (ЮЗ) 20000 м  {снег}  10/10 600 м 
[Ns]
+1.6 -2.1 76 -2  1023.3  0.4  754  302           
12 21.02.18 230 (ЮЗ) 20000 м    10/10 600 м 
[Ns]
+1.8 -1.9 76 1024  0.9  755  302           
15 21.02.18 230 (ЮЗ) н/о    10/10 600 м 
[Ns]
+1 -2.2 79 1025.9  1.8  756  304    +2.2     
18 21.02.18 290 (З) н/о    10/10 600 м 
[Sc]
-1.2 -5.1 75 -4  1027.6  1.5  758  307    +2.2     
21 21.02.18 320 (СЗ) н/о    10/10 600 м 
[Sc]
-5 -9.5 71 -7  1029  1.2  758  312           
00 22.02.18 320 (СЗ) н/о    9/9 600 м 
[Sc]
-8 -12.1 72 -10  1029.3  758  316           
03 22.02.18 320 (СЗ) 20000 м    8/0 средняя 
[Ac und]
-10.8 -14.1 77 -11  1029.1  0.4  759  320  -11      мокрый или
старый снег
50-90% 
06 22.02.18 320 (СЗ) 20000 м    8/0 средняя 
[Ac und]
-4.4 -10.4 63 -4  1029.4  759  312  -11         
09 22.02.18 360 (С) 20000 м    8/0 средняя 
[Ac lent]
-1.6 -9 57 -1  1028.4  -0.9  758  308           
12 22.02.18 050 (СВ) 20000 м    ясно 
+0.4 -8.4 52 +1  1027.7  -0.6  758  306           
15 22.02.18 050 (СВ) н/о    ясно 
-3.4 -7.4 74 -3  1027.7  -0.1  758  310    +0.8       
18 22.02.18 050 (СВ) н/о    10/10 600 м 
[Sc]
-3.6 -7 77 -5  1026.5  -1.3  757  310    +0.8       
21 22.02.18 050 (СВ) н/о    10/10 600 м 
[Sc]
-4 -7.7 75 -5  1026  -0.5  756  310           
00 23.02.18 050 (СВ) н/о    10/10 600 м 
[Sc]
-4.2 -8 75 -6  1024.1  -1.8  755  310           
06 23.02.18 020 (С) 20000 м    10/10 600 м 
[Sc]
+0.8 -4.2 69 1020.5  -1.4  752  303  -4         
09 23.02.18 090 (В) 20000 м    10/10 600 м 
[Sc]
+4.8 -0.8 67 +3  1017.9  -2.3  751  297           
12 23.02.18 020 (С) 20000 м    10/10 600 м 
[Sc]
+4 -1.2 69 +3  1018.2  0.2  751  298           
15 23.02.18 050 (СВ) н/о    10/10 600 м 
[Sc]
+1.8 -1.9 76 1019.8  1.4  752  301    +5.2       
18 23.02.18 360 (С) н/о    10/10 600 м 
[Sc]
+0 -3.4 78 -2  1020.6  0.6  752  304    +5.2       
21 23.02.18 360 (С) н/о    10/10 600 м 
[Sc]
-0.8 -4 79 -2  1021.3  0.7  753  305           
Время (UTC), дата Ветер
(°,м/с) 
Видим.   Явления Облачность Т
(°С)
Тd
(°С)
f(%) Тe
(°С)
Pmin
(гПа)
dP
(гПа)
Po
(мм)
O2
(г/м3)
Тmin Tmax R s Состояние
почвы

Для получения пояснительной информации подведите курсор к названию столбца.

ПОГОДА в Злихе - архив

Всё, что Вы хотите узнать о погоде в Злихе - удобно и подробно!

Выберите нужную дату (начиная с 1 января 2015* года) и нажмите кнопку "Найти".
Будут отображены архивные сводки погоды по пункту Злиха, начиная с указанной даты.


Отображать данные в формате CSV (для использования в таблицах Excel)


Внимание! Наш архив погоды предназначен исключительно для личного некоммерческого использования в познавательных целях. Если Вам необходимы официальные справки о состоянии погоды (для производственных, юридических, коммерческих и т.п. целей), обращайтесь в органы Росгидромета.

*Примечание: данная дата относится к архиву по метеостанциям СССР (Россия, СНГ, Балтия).
Архив по метеостанциям Зарубежной Европы и Азии (кроме Китая) хранится 10 дней, по другим регионам земного шара (Китай, Африка, Америка, Австралия, Океания) - 1 день.

Злиха - район местоположения метеостанции


Название, широта, долгота, высота метеостанции:
Злиха 45.2°ш. 67.1°д. 138 м над ур. моря [Казахстан]

Дополнительная информация

В oтличие oт бoльшинства пoгoдных сайтoв мы публикуем пoдрoбную метеoинфoрмацию в детальнoм прoфессиoнальнoм фoрмате.

Характеристики температуры и влажнoсти вoздуха измеряются на высoте 2 м в тени вдали oт зданий и деревьев.
Скoрoсть ветра измеряется на высoте 10 м (на урoвне рoста челoвека скoрoсть ветра ниже в 1.5-2 раза). Если метеoстанция нахoдится в гoрoде или в лесу, тo скoрoсть ветра занижена на 2-4 м/с пo сравнению с oткрытым местoм. Скoрoсть ветра над акватoриями крупных рек и oзёр, а также на вершинах хoлмoв на 2-5 м/с выше, чем в oбычных услoвиях.
Атмoсфернoе давление в разных тoчках местнoсти мoжет значительнo oтличаться oт давления на метеoстанции, в зависимoсти oт услoвий рельефа (при пoдъёме на 10 м давление пoнижается примернo на 1 мм рт.ст.).